AirNav   Air Wisconsin pilot careers
 
 691 users online  

0KY1 Arnemann Farms Airport
Franklin, Kentucky, USA

GOING TO FRANKLIN?


FAA INFORMATION EFFECTIVE 06 DECEMBER 2018

Location

FAA Identifier: 0KY1
Lat/Long: 36-45-56.0000N / 086-37-06.0000W
36-45.933333N / 086-37.100000W
36.7655556 / -86.6183333
(estimated)
Elevation: 504 ft. / 154 m (estimated)
Variation: 01W (1990)
From city: 3 miles NW of FRANKLIN, KY
Time zone: UTC -6 (UTC -5 during Daylight Saving Time)
Zip code: 42134

Airport Operations

Airport use: Private use. Permission required prior to landing
Activation date: 12/1992
Control tower: no
ARTCC: MEMPHIS CENTER
FSS: LOUISVILLE FLIGHT SERVICE STATION
Attendance: UNATNDD
Segmented circle: no

Airport Communications

WX AWOS-3 at 1M5 (12 nm SE): 118.175 (615-325-4971)
WX ASOS at BWG (15 nm NE): 127.825 (270-843-8136)

Nearby radio navigation aids

VOR radial/distance  VOR name  Freq  Var
BWGr219/12.9BOWLING GREEN VORTAC117.9002E
BNAr007/37.9NASHVILLE VORTAC114.1002W
CKVr078/39.2CLARKSVILLE VOR/DME110.6001W

 
NDB name  Hdg/Dist  Freq  Var  ID
NOORA228/9.523604WBW -... .--

Airport Services

Runway Information

Runway 10/28

Dimensions: 3200 x 75 ft. / 975 x 23 m
Surface: asphalt
RUNWAY 10  RUNWAY 28
Traffic pattern: leftleft

Airport Ownership and Management from official FAA records

Ownership: Privately-owned
Owner: JURGEN ARNEMANN
1895 BLACKJACK ROAD
FRANKLIN, KY 42134
Phone 270-586-5252
Manager: JURGEN ARNEMANN
1895 BLACKJACK ROAD
FRANKLIN, KY 42134
Phone 270-586-5252

Instrument Procedures

There are no published instrument procedures at 0KY1.

Some nearby airports with instrument procedures:

4M7 - Russellville-Logan County Airport (9 nm W)
1M5 - Portland Municipal Airport (12 nm SE)
KBWG - Bowling Green-Warren County Regional Airport (15 nm NE)
M91 - Springfield Robertson County Airport (20 nm SW)
KXNX - Sumner County Regional Airport (26 nm SE)
 
Loc | Ops | Rwys | IFR | FBO | Links
Com | Nav | Svcs | Stats | Notes


 
Area around 0KY1 (Arnemann Farms Airport)
 
Road maps at: MapQuest Bing Google
 
Aerial photo
No photo
 
Sectional chart

 
Airport distance calculator
Flying to Arnemann Farms Airport? Find the distance to fly.

From to 0KY1

Sunrise and sunset
Times for 12-Dec-2018
 Local
(UTC-6)
 Zulu
(UTC)
Morning civil twilight06:2212:22
Sunrise06:5112:51
Sunset16:3022:30
Evening civil twilight16:5922:59

Current date and time
Zulu (UTC)  13-Dec-2018 04:42:25
Local (UTC-6)  12-Dec-2018 22:42:25
 
METAR
K1M5 
12nm SE 
130415Z AUTO 21011G17KT 10SM OVC028 09/00 A3008 RMK A01
KBWG 
15nm NE 
130353Z AUTO 21006KT 10SM OVC032 10/03 A3007 RMK AO2 SLP183 T01000028
KM91 
20nm SW 
130415Z AUTO 20009G15KT 10SM OVC025 09/02 A3007 RMK A01
TAF
KBWG 
15nm NE 
121720Z 1218/1318 22010G18KT P6SM SCT060 BKN250 FM130000 21011KT P6SM OVC070 FM130600 20005KT P6SM OVC035 FM131200 17005KT P6SM OVC020
NOTAMs
Click for the latest NOTAMs
NOTAMs are issued by the DoD/FAA and will open in a separate window not controlled by AirNav.

 

 
 

Would you like to see your business listed on this page?

 If your business provides an interesting product or service to pilots, flight crews, aircraft, or users of the Arnemann Farms Airport, you should consider listing it here.  To start the listing process, click on the button below
 
Add a business
 

Other Pages about Arnemann Farms Airport

Update a link
 
Copyright © AirNav, LLC. All rights reserved. Privacy Policy  Contact